EW5655 Weather Reports


Display with metric or nautical units.
time (UTC)temp
F
wind
direction
speed
MPH
gust
MPH
rain 1hr
in
rain 24hr
in
rain mn
in
humidity
%
barometer
mb
20260507145551 61 41 3.0 8.0 0.00 0.00 0.00 38 1019.0
20260507145049 60 2 4.0 8.0 0.00 0.00 0.00 38 1018.9
20260507144548 60 35 2.0 8.0 0.00 0.00 0.00 40 1019.0
20260507144048 59 38 3.0 8.0 0.00 0.00 0.00 40 1019.1
20260507143546 59 39 3.0 8.0 0.00 0.00 0.00 41 1019.1
20260507143057 58 44 2.0 7.0 0.00 0.00 0.00 41 1019.0
20260507142543 58 33 2.0 7.0 0.00 0.00 0.00 41 1019.1
20260507142042 57 24 2.0 7.0 0.00 0.00 0.00 41 1019.1
20260507141542 57 15 2.0 6.0 0.00 0.00 0.00 41 1019.2
20260507141041 56 44 1.0 6.0 0.00 0.00 0.00 42 1019.2
20260507140541 56 33 1.0 7.0 0.00 0.00 0.00 42 1019.1
20260507140041 56 28 2.0 7.0 0.00 0.00 0.00 42 1019.2
20260507135544 56 32 1.0 7.0 0.00 0.00 0.00 43 1019.1
20260507135039 55 63 3.0 6.0 0.00 0.00 0.00 44 1019.1
20260507134539 55 55 3.0 6.0 0.00 0.00 0.00 44 1019.1
20260507134037 54 79 2.0 7.0 0.00 0.00 0.00 44 1019.0
20260507133537 54 49 3.0 7.0 0.00 0.00 0.00 44 1018.9
20260507133044 54 47 1.0 6.0 0.00 0.00 0.00 44 1018.8
20260507132535 54 44 2.0 7.0 0.00 0.00 0.00 44 1018.7
20260507132034 53 19 2.0 7.0 0.00 0.00 0.00 44 1018.6
20260507131540 53 3 2.0 7.0 0.00 0.00 0.00 44 1018.5
20260507131033 53 30 4.0 7.0 0.00 0.00 0.00 44 1018.5
20260507130532 52 15 4.0 8.0 0.00 0.00 0.00 44 1018.4
20260507130036 52 11 4.0 8.0 0.00 0.00 0.00 44 1018.4
20260507125530 52 24 2.0 8.0 0.00 0.00 0.00 43 1018.4
20260507125030 51 53 3.0 6.0 0.00 0.00 0.00 43 1018.4
20260507124530 51 19 1.0 7.0 0.00 0.00 0.00 42 1018.4
20260507124030 52 20 3.0 7.0 0.00 0.00 0.00 42 1018.4
20260507123528 51 8 3.0 6.0 0.00 0.00 0.00 42 1018.2
20260507123026 51 36 2.0 5.0 0.00 0.00 0.00 42 1018.2
20260507122526 51 30 2.0 5.0 0.00 0.00 0.00 41 1018.2
20260507122026 50 38 1.0 4.0 0.00 0.00 0.00 40 1018.2
20260507121526 50 36 2.0 6.0 0.00 0.00 0.00 39 1018.1
20260507121025 50 7 2.0 7.0 0.00 0.00 0.00 39 1018.1
20260507120523 50 31 3.0 7.0 0.00 0.00 0.00 39 1018.1
20260507120023 50 32 1.0 6.0 0.00 0.00 0.00 39 1018.1
20260507115526 50 38 2.0 5.0 0.00 0.00 0.00 38 1018.0
20260507115021 50 57 2.0 6.0 0.00 0.00 0.00 37 1017.9
20260507114521 50 47 3.0 6.0 0.00 0.00 0.00 36 1018.0
20260507114019 50 32 1.0 6.0 0.00 0.00 0.00 35 1017.9
20260507113519 50 48 1.0 5.0 0.00 0.00 0.00 34 1018.0
20260507113025 50 66 1.0 3.0 0.00 0.00 0.00 34 1017.9
20260507112519 50 56 0.0 5.0 0.00 0.00 0.00 32 1017.9
20260507112018 50 58 2.0 5.0 0.00 0.00 0.00 33 1017.9
20260507111518 50 49 1.0 5.0 0.00 0.00 0.00 32 1017.9
20260507111015 50 63 2.0 5.0 0.00 0.00 0.00 32 1018.0
20260507110514 51 65 2.0 6.0 0.00 0.00 0.00 31 1018.0
20260507110014 51 42 1.0 6.0 0.00 0.00 0.00 30 1017.9
20260507105511 52 46 0.0 3.0 0.00 0.00 0.00 30 1018.0
20260507105011 52 46 0.0 2.0 0.00 0.00 0.00 29 1017.8
20260507104510 52 46 0.0 2.0 0.00 0.00 0.00 29 1017.8
20260507104010 52 46 0.0 4.0 0.00 0.00 0.00 29 1017.8
20260507103509 52 46 1.0 4.0 0.00 0.00 0.00 28 1017.8
20260507103009 52 46 1.0 2.0 0.00 0.00 0.00 29 1017.7
20260507102508 53 46 0.0 5.0 0.00 0.00 0.00 28 1017.8
20260507102008 53 46 1.0 6.0 0.00 0.00 0.00 28 1017.8
20260507101507 53 58 2.0 6.0 0.00 0.00 0.00 28 1017.7
20260507101005 54 51 1.0 4.0 0.00 0.00 0.00 27 1017.6
20260507100506 54 49 0.0 7.0 0.00 0.00 0.00 26 1017.5
20260507100010 55 51 2.0 8.0 0.00 0.00 0.00 26 1017.5
20260507095506 56 7 4.0 8.0 0.00 0.00 0.00 25 1017.4
20260507095003 56 49 4.0 7.0 0.00 0.00 0.00 25 1017.4
20260507094502 56 38 3.0 8.0 0.00 0.00 0.00 24 1017.4
20260507094002 57 31 3.0 8.0 0.00 0.00 0.00 24 1017.3
20260507093501 57 11 4.0 9.0 0.00 0.00 0.00 23 1017.3
20260507093003 57 355 4.0 7.0 0.00 0.00 0.00 23 1017.3
20260507092502 57 17 1.0 6.0 0.00 0.00 0.00 23 1017.3
20260507092100 57 10 3.0 7.0 0.00 0.00 0.00 23 1017.3
20260507091600 56 3 3.0 7.0 0.00 0.00 0.00 24 1017.2
20260507091100 54 17 2.0 5.0 0.00 0.00 0.00 28 1017.3
20260507090600 54 16 0.0 1.0 0.00 0.00 0.00 30 1017.3
20260507090101 54 16 0.0 2.0 0.00 0.00 0.00 29 1017.3
20260507085556 55 16 0.0 2.0 0.00 0.00 0.00 27 1017.3
20260507085056 56 16 0.0 2.0 0.00 0.00 0.00 26 1017.3
20260507084605 56 15 0.0 4.0 0.00 0.00 0.00 25 1017.3
20260507084055 57 13 0.0 5.0 0.00 0.00 0.00 23 1017.3
20260507083557 58 13 2.0 6.0 0.00 0.00 0.00 22 1017.2
20260507083055 57 20 3.0 6.0 0.00 0.00 0.00 23 1017.2
20260507082555 58 36 2.0 7.0 0.00 0.00 0.00 23 1017.2
20260507082054 58 14 2.0 5.0 0.00 0.00 0.00 22 1017.2
20260507081558 57 22 1.0 3.0 0.00 0.00 0.00 23 1017.3
20260507081054 56 30 1.0 4.0 0.00 0.00 0.00 26 1017.3
20260507080553 57 30 1.0 5.0 0.00 0.00 0.00 25 1017.4
20260507080055 57 27 1.0 5.0 0.00 0.00 0.00 24 1017.2
20260507075557 57 14 2.0 6.0 0.00 0.00 0.00 23 1017.2
20260507075052 58 15 3.0 7.0 0.00 0.00 0.00 23 1017.2
20260507074552 58 14 3.0 7.0 0.00 0.00 0.00 22 1017.2
20260507074051 59 18 3.0 7.0 0.00 0.00 0.00 22 1017.2
20260507073549 58 6 3.0 7.0 0.00 0.00 0.00 22 1017.2
20260507073049 58 14 3.0 5.0 0.00 0.00 0.00 23 1017.4
20260507072548 57 26 1.0 3.0 0.00 0.00 0.00 23 1017.4
20260507072048 56 59 0.0 4.0 0.00 0.00 0.00 25 1017.4
20260507071549 56 59 0.0 2.0 0.00 0.00 0.00 24 1017.5
20260507071047 56 59 0.0 5.0 0.00 0.00 0.00 26 1017.5
20260507070547 56 59 0.0 5.0 0.00 0.00 0.00 27 1017.4
20260507070101 56 34 0.0 4.0 0.00 0.00 0.00 27 1017.4
20260507065545 56 33 0.0 2.0 0.00 0.00 0.00 27 1017.4
20260507065044 56 33 0.0 1.0 0.00 0.00 0.00 27 1017.4
20260507064551 56 33 0.0 5.0 0.00 0.00 0.00 26 1017.4
20260507064043 57 33 0.0 5.0 0.00 0.00 0.00 26 1017.4
20260507063542 58 21 0.0 4.0 0.00 0.00 0.00 24 1017.5
20260507063042 57 21 1.0 4.0 0.00 0.00 0.00 24 1017.4
20260507062545 57 22 0.0 4.0 0.00 0.00 0.00 26 1017.4
20260507062041 57 22 0.0 4.0 0.00 0.00 0.00 26 1017.4
20260507061540 58 22 0.0 4.0 0.00 0.00 0.00 25 1017.5
20260507061038 59 22 0.0 4.0 0.00 0.00 0.00 22 1017.5
20260507060539 59 22 2.0 4.0 0.00 0.00 0.00 22 1017.5
20260507060037 58 28 0.0 2.0 0.00 0.00 0.00 23 1017.6
20260507055536 58 28 0.0 4.0 0.00 0.00 0.00 24 1017.6
20260507055035 58 28 0.0 4.0 0.00 0.00 0.00 23 1017.6
20260507054545 59 25 1.0 3.0 0.00 0.00 0.00 23 1017.5
20260507054034 59 25 0.0 2.0 0.00 0.00 0.00 22 1017.3
20260507053536 60 25 0.0 2.0 0.00 0.00 0.00 22 1017.3
20260507053034 60 24 0.0 4.0 0.00 0.00 0.00 21 1017.3
20260507052533 61 24 1.0 4.0 0.00 0.00 0.00 20 1017.3
20260507052033 61 30 1.0 4.0 0.00 0.00 0.00 20 1017.3
20260507051534 60 7 2.0 3.0 0.00 0.00 0.00 21 1017.3
20260507051033 60 269 0.0 1.0 0.00 0.00 0.00 24 1017.3
20260507050534 61 269 0.0 4.0 0.00 0.00 0.00 23 1017.3
20260507050042 62 269 1.0 5.0 0.00 0.00 0.00 20 1017.3
20260507045532 61 17 0.0 4.0 0.00 0.00 0.00 21 1017.2
20260507045032 62 340 0.0 4.0 0.00 0.00 0.00 20 1017.2
20260507044534 62 1 0.0 5.0 0.00 0.00 0.00 19 1017.1
20260507044031 61 22 2.0 5.0 0.00 0.00 0.00 20 1017.1
20260507043531 61 355 1.0 2.0 0.00 0.00 0.00 22 1017.1
20260507043030 61 38 0.0 4.0 0.00 0.00 0.00 21 1017.1
20260507042531 62 30 0.0 2.0 0.00 0.00 0.00 19 1017.1
20260507042031 62 30 0.0 4.0 0.00 0.00 0.00 19 1016.9
20260507041530 63 30 0.0 3.0 0.00 0.00 0.00 19 1016.9
20260507041030 63 330 0.0 2.0 0.00 0.00 0.00 18 1016.9
20260507040529 64 329 0.0 2.0 0.00 0.00 0.00 18 1016.9
20260507040038 65 329 0.0 7.0 0.00 0.00 0.00 17 1016.8
20260507035530 64 281 1.0 7.0 0.00 0.00 0.00 16 1016.7
20260507035030 65 227 1.0 5.0 0.00 0.00 0.00 16 1016.7
20260507034530 66 229 1.0 8.0 0.00 0.00 0.00 15 1016.6
20260507034029 67 229 3.0 10.0 0.00 0.00 0.00 15 1016.6
20260507033529 66 276 5.0 10.0 0.00 0.00 0.00 15 1016.4
20260507033029 65 313 2.0 7.0 0.00 0.00 0.00 17 1016.5
20260507032528 65 276 1.0 4.0 0.00 0.00 0.00 17 1016.5
20260507032028 66 254 2.0 5.0 0.00 0.00 0.00 16 1016.4
20260507031530 66 276 1.0 7.0 0.00 0.00 0.00 15 1016.4
20260507031028 66 263 4.0 7.0 0.00 0.00 0.00 14 1016.3
20260507030529 65 342 1.0 2.0 0.00 0.00 0.00 17 1016.3
20260507030028 65 342 0.0 2.0 0.00 0.00 0.00 18 1016.2
20260507025528 66 342 1.0 5.0 0.00 0.00 0.00 15 1016.2
20260507025028 67 296 1.0 5.0 0.00 0.00 0.00 14 1016.0
20260507024533 68 276 1.0 7.0 0.00 0.00 0.00 13 1015.9
20260507024027 68 232 3.0 8.0 0.00 0.00 0.00 13 1015.8
20260507023527 68 240 3.0 8.0 0.00 0.00 0.00 13 1015.7
20260507023026 68 254 5.0 8.0 0.00 0.00 0.00 13 1015.6
20260507022527 69 257 4.0 8.0 0.00 0.00 0.00 13 1015.6
20260507022027 69 198 3.0 8.0 0.00 0.00 0.00 13 1015.5
20260507021533 69 221 4.0 9.0 0.00 0.00 0.00 14 1015.5
20260507021026 69 248 5.0 9.0 0.00 0.00 0.00 12 1015.5
20260507020526 70 220 4.0 9.0 0.00 0.00 0.00 13 1015.4
20260507020027 70 198 5.0 9.0 0.00 0.00 0.00 12 1015.4
20260507015526 70 211 4.0 8.0 0.00 0.00 0.00 12 1015.3
20260507015026 71 249 5.0 10.0 0.00 0.00 0.00 12 1015.3
20260507014529 71 197 6.0 13.0 0.00 0.00 0.00 11 1015.3
20260507014024 71 252 7.0 13.0 0.00 0.00 0.00 11 1015.2
20260507013525 72 206 7.0 13.0 0.00 0.00 0.00 11 1015.2
20260507013025 72 244 6.0 14.0 0.00 0.00 0.00 11 1015.2
20260507012525 72 257 8.0 14.0 0.00 0.00 0.00 11 1015.1
20260507012027 72 247 7.0 13.0 0.00 0.00 0.00 11 1015.1
20260507011525 72 251 6.0 13.0 0.00 0.00 0.00 11 1015.2
20260507011023 73 276 7.0 15.0 0.00 0.00 0.00 11 1015.1
20260507010527 73 267 7.0 15.0 0.00 0.00 0.00 11 1015.1
20260507010031 73 246 8.0 15.0 0.00 0.00 0.00 11 1015.0
20260507005524 73 240 8.0 18.0 0.00 0.00 0.00 11 1015.0
20260507005023 73 321 8.0 18.0 0.00 0.00 0.00 11 1014.9
20260507004522 74 236 10.0 18.0 0.00 0.00 0.00 11 1014.9
20260507004023 74 296 7.0 15.0 0.00 0.00 0.00 11 1014.9
20260507003524 74 281 8.0 15.0 0.00 0.00 0.00 12 1014.8
20260507003022 74 247 9.0 16.0 0.00 0.00 0.00 11 1014.8
20260507002521 74 257 10.0 16.0 0.00 0.00 0.00 11 1014.8
20260507002022 74 245 7.0 20.0 0.00 0.00 0.00 11 1014.7
20260507001522 74 223 9.0 20.0 0.00 0.00 0.00 12 1014.7
20260507001023 75 252 9.0 15.0 0.00 0.00 0.00 11 1014.7
20260507000522 75 305 8.0 15.0 0.00 0.00 0.00 11 1014.7
20260507000026 75 246 7.0 14.0 0.00 0.00 0.00 12 1014.6
20260506235521 75 281 8.0 13.0 0.00 0.00 0.00 12 1014.6
20260506235019 75 213 7.0 15.0 0.00 0.00 0.00 12 1014.6
20260506234520 75 253 10.0 15.0 0.00 0.00 0.00 12 1014.6
20260506234019 75 303 9.0 16.0 0.00 0.00 0.00 12 1014.5
20260506233520 75 257 10.0 19.0 0.00 0.00 0.00 11 1014.6
20260506233020 75 257 12.0 19.0 0.00 0.00 0.00 11 1014.6
20260506232518 75 257 8.0 18.0 0.00 0.00 0.00 11 1014.6
20260506232118 75 236 10.0 22.0 0.00 0.00 0.00 11 1014.7
20260506231520 76 248 11.0 19.0 0.00 0.00 0.00 11 1014.6
20260506231019 75 255 8.0 19.0 0.00 0.00 0.00 11 1014.6
20260506230517 75 248 8.0 16.0 0.00 0.00 0.00 12 1014.6
20260506230019 75 267 10.0 16.0 0.00 0.00 0.00 11 1014.6
20260506225516 75 296 8.0 20.0 0.00 0.00 0.00 11 1014.6
20260506225016 75 244 12.0 20.0 0.00 0.00 0.00 11 1014.7
20260506224516 75 256 11.0 19.0 0.00 0.00 0.00 11 1014.7
20260506224014 75 232 9.0 19.0 0.00 0.00 0.00 11 1014.7
20260506223514 76 221 9.0 21.0 0.00 0.00 0.00 12 1014.8
20260506223014 75 241 12.0 21.0 0.00 0.00 0.00 12 1014.8
20260506222514 75 228 9.0 20.0 0.00 0.00 0.00 12 1014.8
20260506222014 76 281 12.0 19.0 0.00 0.00 0.00 11 1014.9
20260506221513 75 200 10.0 20.0 0.00 0.00 0.00 11 1014.8
20260506221012 76 215 11.0 20.0 0.00 0.00 0.00 11 1014.9
20260506220513 75 267 8.0 18.0 0.00 0.00 0.00 12 1014.9
20260506220012 75 227 9.0 18.0 0.00 0.00 0.00 13 1014.9
20260506215512 75 244 8.0 15.0 0.00 0.00 0.00 14 1014.9
20260506215010 75 234 9.0 16.0 0.00 0.00 0.00 14 1015.0
20260506214512 76 293 7.0 19.0 0.00 0.00 0.00 13 1015.0
20260506214012 75 281 9.0 18.0 0.00 0.00 0.00 14 1015.1
20260506213510 75 240 9.0 16.0 0.00 0.00 0.00 13 1015.1
20260506213009 75 254 9.0 16.0 0.00 0.00 0.00 14 1015.2
20260506212509 75 250 8.0 13.0 0.00 0.00 0.00 15 1015.1
20260506212010 76 215 5.0 16.0 0.00 0.00 0.00 16 1015.1
20260506211508 75 215 8.0 16.0 0.00 0.00 0.00 16 1015.2
20260506211008 76 263 8.0 14.0 0.00 0.00 0.00 15 1015.3
20260506210508 75 327 8.0 15.0 0.00 0.00 0.00 16 1015.2
20260506210007 75 231 7.0 19.0 0.00 0.00 0.00 15 1015.2
20260506205507 75 211 7.0 23.0 0.00 0.00 0.00 16 1015.3
20260506205006 75 228 5.0 18.0 0.00 0.00 0.00 16 1015.3
20260506204512 75 223 11.0 18.0 0.00 0.00 0.00 17 1015.5
20260506204005 75 232 7.0 23.0 0.00 0.00 0.00 18 1015.4
20260506203505 75 291 7.0 19.0 0.00 0.00 0.00 18 1015.4
20260506203004 74 257 7.0 18.0 0.00 0.00 0.00 19 1015.5
20260506202503 74 212 7.0 18.0 0.00 0.00 0.00 20 1015.6
20260506202003 74 276 6.0 14.0 0.00 0.00 0.00 19 1015.6
20260506201506 73 248 4.0 16.0 0.00 0.00 0.00 18 1015.5
20260506201004 73 268 9.0 16.0 0.00 0.00 0.00 19 1015.7
20260506200501 74 325 4.0 12.0 0.00 0.00 0.00 19 1015.7
20260506200004 74 249 8.0 12.0 0.00 0.00 0.00 20 1015.7
20260506195501 74 281 4.0 13.0 0.00 0.00 0.00 21 1015.7
20260506195100 72 245 6.0 13.0 0.00 0.00 0.00 20 1015.8
20260506195004 72 254 7.0 13.0 0.00 0.00 0.00 20 1015.8
20260506194100 73 261 8.0 16.0 0.00 0.00 0.00 21 1015.9
20260506193559 73 304 5.0 14.0 0.00 0.00 0.00 21 1016.0
20260506193100 73 194 8.0 14.0 0.00 0.00 0.00 21 1016.1
20260506192558 71 186 2.0 15.0 0.00 0.00 0.00 23 1016.1
20260506192058 72 325 8.0 15.0 0.00 0.00 0.00 24 1016.1
20260506191605 72 276 8.0 14.0 0.00 0.00 0.00 23 1016.2
20260506191058 72 244 8.0 14.0 0.00 0.00 0.00 23 1016.2
20260506190558 72 227 5.0 13.0 0.00 0.00 0.00 22 1016.3
20260506190057 71 255 8.0 15.0 0.00 0.00 0.00 24 1016.3
20260506185556 71 245 7.0 15.0 0.00 0.00 0.00 24 1016.4
20260506185057 70 202 7.0 15.0 0.00 0.00 0.00 23 1016.5
20260506184558 71 262 5.0 12.0 0.00 0.00 0.00 24 1016.5
20260506184054 70 309 5.0 13.0 0.00 0.00 0.00 23 1016.6
20260506183554 70 252 8.0 15.0 0.00 0.00 0.00 24 1016.6
20260506183102 70 259 10.0 15.0 0.00 0.00 0.00 22 1016.6
20260506182551 70 264 7.0 16.0 0.00 0.00 0.00 23 1016.7
20260506182051 70 257 8.0 16.0 0.00 0.00 0.00 24 1016.7
20260506181602 69 263 7.0 14.0 0.00 0.00 0.00 25 1016.6
20260506181049 69 227 8.0 18.0 0.00 0.00 0.00 25 1016.7
20260506180550 69 213 9.0 18.0 0.00 0.00 0.00 25 1016.7
20260506180048 69 254 8.0 15.0 0.00 0.00 0.00 25 1016.8
20260506175546 68 276 8.0 19.0 0.00 0.00 0.00 25 1016.8
20260506175046 69 250 7.0 19.0 0.00 0.00 0.00 25 1016.8
20260506174545 69 242 7.0 15.0 0.00 0.00 0.00 25 1016.8
20260506174043 69 243 9.0 14.0 0.00 0.00 0.00 26 1016.9
20260506173542 68 234 6.0 16.0 0.00 0.00 0.00 27 1016.9
20260506173142 68 222 6.0 16.0 0.00 0.00 0.00 27 1017.0
20260506172542 68 263 7.0 14.0 0.00 0.00 0.00 27 1016.9
20260506172038 68 221 8.0 14.0 0.00 0.00 0.00 26 1016.9
20260506171542 67 245 8.0 14.0 0.00 0.00 0.00 27 1017.0
20260506171035 67 293 6.0 15.0 0.00 0.00 0.00 29 1017.0
20260506170534 66 258 8.0 18.0 0.00 0.00 0.00 29 1017.1
20260506170048 66 235 7.0 16.0 0.00 0.00 0.00 28 1017.1
20260506165533 66 238 10.0 16.0 0.00 0.00 0.00 27 1017.2
20260506165030 66 310 9.0 14.0 0.00 0.00 0.00 27 1017.2
20260506164529 66 230 6.0 18.0 0.00 0.00 0.00 30 1017.2
20260506164027 65 259 9.0 18.0 0.00 0.00 0.00 29 1017.2
20260506163527 65 258 9.0 14.0 0.00 0.00 0.00 30 1017.2
20260506163028 66 248 8.0 14.0 0.00 0.00 0.00 29 1017.1
20260506162523 66 236 8.0 13.0 0.00 0.00 0.00 31 1017.1
20260506162023 65 266 5.0 15.0 0.00 0.00 0.00 33 1017.0
20260506161521 64 281 8.0 16.0 0.00 0.00 0.00 32 1017.2
20260506161023 64 290 8.0 16.0 0.00 0.00 0.00 31 1017.1
20260506160518 64 253 11.0 16.0 0.00 0.00 0.00 32 1017.2
20260506160016 64 261 9.0 14.0 0.00 0.00 0.00 33 1017.1
20260506155514 65 276 6.0 12.0 0.00 0.00 0.00 33 1017.1
20260506155012 64 206 4.0 14.0 0.00 0.00 0.00 35 1017.1
20260506154512 64 251 6.0 14.0 0.00 0.00 0.00 35 1017.1
20260506154010 63 271 5.0 14.0 0.00 0.00 0.00 35 1017.0
20260506153508 63 271 7.0 14.0 0.00 0.00 0.00 35 1017.1
20260506153007 63 239 8.0 13.0 0.00 0.00 0.00 35 1017.1
20260506152508 62 223 6.0 11.0 0.00 0.00 0.00 36 1017.1
20260506152004 62 202 2.0 8.0 0.00 0.00 0.00 36 1017.1
20260506151507 62 250 3.0 9.0 0.00 0.00 0.00 37 1017.0
20260506151001 62 281 5.0 9.0 0.00 0.00 0.00 36 1017.0
20260506150600 62 252 4.0 9.0 0.00 0.00 0.00 37 1017.0
20260506150059 62 281 4.0 9.0 0.00 0.00 0.00 38 1017.0